Location: Billings, MT
(45.7828°N, 108.5373°W)
Time: 12:03:49
(UTC-07:00)

BlueWalker 3 - Visible Passes

Search period start: 06 December 2025 00:00
Search period end: 16 December 2025 00:00
Orbit: 455 x 462 km, 53.2° (Epoch: 06 December)

Date Brightness Start Highest point End Pass type
(mag) Time Alt. Az. Time Alt. Az. Time Alt. Az.
06 Dec 2.1 18:25:54 10° WNW 18:29:29 62° SW 18:30:31 41° SSE visible
07 Dec 1.8 17:51:03 10° WNW 17:54:41 78° SW 17:57:56 12° SE visible
07 Dec 4.8 19:30:07 10° WSW 19:31:40 12° SW 19:31:46 12° SW visible
08 Dec 1.7 17:16:13 10° WNW 17:19:51 85° NNE 17:23:29 10° ESE visible
08 Dec 4.7 18:54:42 10° W 18:56:57 16° SW 18:59:12 10° S visible
09 Dec 4.4 18:19:30 10° W 18:22:12 20° SW 18:24:55 10° S visible
10 Dec 4.2 17:44:23 10° WNW 17:47:26 25° SW 17:50:27 10° SSE visible
11 Dec 3.8 17:09:22 10° WNW 17:12:37 32° SW 17:15:52 10° SSE visible
